• In Deutschland
  • Länderverzeichnis
  • Für 7 Tage
  • Wassertemperatur
  • Satellitenkarten
  • Wetterkarte
  • Widgets
  • user-avatar
    Anmelden

    Stündliche Wetter Bad Liebenzell

    Heute, 19 Januar, Freitag

    Zeit Temperatur Niederschläge Wind Luftdruck Luftfeuchtigkeit
    00:00 +2°C° 0,5 mm 5 m/S 705 mmHg 87%
    01:00 +2°C° 0,5 mm 5 m/S 705 mmHg 86%
    02:00 +2°C° 0,3 mm 6 m/S 705 mmHg 85%
    03:00 +2°C° 0,3 mm 6 m/S 706 mmHg 83%
    04:00 +1°C° 0,3 mm 6 m/S 706 mmHg 82%
    05:00 +1°C° 0,2 mm 6 m/S 706 mmHg 82%
    06:00 +1°C° 0,2 mm 6 m/S 707 mmHg 81%
    07:00 0°C° 0,2 mm 5 m/S 707 mmHg 81%
    08:00 -1°C° 0,1 mm 6 m/S 708 mmHg 80%
    09:00 -1°C° 0,1 mm 6 m/S 709 mmHg 80%
    10:00 -1°C° 0,1 mm 6 m/S 710 mmHg 80%
    11:00 -1°C° 0,1 mm 6 m/S 710 mmHg 78%
    12:00 +1°C° 0,1 mm 6 m/S 710 mmHg 75%
    13:00 +1°C° 0,1 mm 6 m/S 711 mmHg 72%
    14:00 +1°C° 0,1 mm 5 m/S 711 mmHg 74%
    15:00 +1°C° 0,1 mm 4 m/S 711 mmHg 75%
    16:00 0°C° 0,1 mm 4 m/S 711 mmHg 76%
    17:00 0°C° 0 mm 4 m/S 711 mmHg 79%
    18:00 0°C° 0 mm 3 m/S 711 mmHg 82%
    19:00 -1°C° 0 mm 3 m/S 711 mmHg 85%
    20:00 -1°C° 0,1 mm 3 m/S 711 mmHg 86%
    21:00 -1°C° 0,1 mm 3 m/S 711 mmHg 87%
    22:00 -1°C° 0,1 mm 3 m/S 711 mmHg 88%
    23:00 -1°C° 0,1 mm 3 m/S 711 mmHg 88%

    Morgen, 20 Januar, Samstag

    Zeit Temperatur Niederschläge Wind Luftdruck Luftfeuchtigkeit
    00:00 -2°C° 0,1 mm 4 m/S 711 mmHg 88%
    01:00 -2°C° 0,1 mm 4 m/S 711 mmHg 88%
    02:00 -1°C° 0,2 mm 5 m/S 711 mmHg 87%
    03:00 -1°C° 0,2 mm 5 m/S 711 mmHg 86%
    04:00 -1°C° 0,2 mm 5 m/S 710 mmHg 85%
    05:00 -1°C° 0,4 mm 5 m/S 710 mmHg 86%
    06:00 -1°C° 0,4 mm 5 m/S 710 mmHg 86%
    07:00 -1°C° 0,4 mm 4 m/S 710 mmHg 87%
    08:00 -1°C° 0,2 mm 4 m/S 710 mmHg 87%
    09:00 -1°C° 0,2 mm 4 m/S 709 mmHg 87%
    10:00 0°C° 0,2 mm 3 m/S 709 mmHg 87%
    11:00 +1°C° 0,5 mm 3 m/S 708 mmHg 87%
    12:00 +1°C° 0,5 mm 3 m/S 707 mmHg 86%
    13:00 +1°C° 0,5 mm 3 m/S 706 mmHg 86%
    14:00 +2°C° 1,2 mm 2 m/S 705 mmHg 87%
    15:00 +2°C° 1,2 mm 2 m/S 704 mmHg 89%
    16:00 +3°C° 1,2 mm 1 m/S 703 mmHg 91%
    17:00 +2°C° 0,8 mm 1 m/S 703 mmHg 92%
    18:00 +2°C° 0,8 mm 1 m/S 703 mmHg 92%
    19:00 +2°C° 0,8 mm 1 m/S 703 mmHg 93%
    20:00 +1°C° 0,2 mm 2 m/S 705 mmHg 92%
    21:00 -1°C° 0,2 mm 4 m/S 706 mmHg 92%
    22:00 -1°C° 0,2 mm 5 m/S 707 mmHg 92%
    23:00 -1°C° 0,2 mm 4 m/S 708 mmHg 92%

    übermorgen, 21 Januar, Sonntag

    Zeit Temperatur Niederschläge Wind Luftdruck Luftfeuchtigkeit
    00:00 -2°C° 0,2 mm 4 m/S 708 mmHg 92%
    01:00 -2°C° 0,2 mm 4 m/S 709 mmHg 91%
    02:00 -1°C° 0,1 mm 3 m/S 710 mmHg 91%
    03:00 -1°C° 0,1 mm 3 m/S 711 mmHg 91%
    04:00 -1°C° 0,1 mm 3 m/S 712 mmHg 90%
    05:00 -2°C° 0,1 mm 2 m/S 712 mmHg 91%
    06:00 -2°C° 0,1 mm 2 m/S 713 mmHg 92%
    07:00 -2°C° 0,1 mm 2 m/S 713 mmHg 93%
    08:00 -2°C° 0 mm 2 m/S 713 mmHg 92%
    09:00 +1°C° 0 mm 1 m/S 714 mmHg 92%
    10:00 +1°C° 0 mm 1 m/S 714 mmHg 91%
    11:00 +1°C° 0,1 mm 1 m/S 714 mmHg 90%
    12:00 +2°C° 0,1 mm 1 m/S 714 mmHg 89%
    13:00 +1°C° 0,1 mm 2 m/S 714 mmHg 88%
    14:00 +2°C° 0,2 mm 1 m/S 713 mmHg 89%
    15:00 +2°C° 0,2 mm 1 m/S 713 mmHg 89%
    16:00 +2°C° 0,2 mm 1 m/S 712 mmHg 90%
    17:00 +1°C° 0,6 mm 2 m/S 712 mmHg 91%
    18:00 +1°C° 0,6 mm 2 m/S 711 mmHg 91%
    19:00 +1°C° 0,6 mm 2 m/S 711 mmHg 91%
    20:00 +1°C° 0,7 mm 2 m/S 711 mmHg 92%
    21:00 +2°C° 0,7 mm 2 m/S 711 mmHg 93%
    22:00 +2°C° 0,7 mm 2 m/S 711 mmHg 94%
    23:00 +3°C° 1,5 mm 2 m/S 710 mmHg 95%

    22 Januar, Montag

    Zeit Temperatur Niederschläge Wind Luftdruck Luftfeuchtigkeit
    00:00 +2°C° 1,5 mm 3 m/S 710 mmHg 96%
    01:00 +3°C° 1,5 mm 3 m/S 710 mmHg 97%
    02:00 +4°C° 2,2 mm 4 m/S 710 mmHg 96%
    03:00 +4°C° 2,2 mm 4 m/S 710 mmHg 96%
    04:00 +5°C° 2,2 mm 5 m/S 710 mmHg 95%
    05:00 +5°C° 2,1 mm 5 m/S 710 mmHg 95%
    06:00 +5°C° 2,1 mm 5 m/S 710 mmHg 95%
    07:00 +6°C° 2,1 mm 5 m/S 710 mmHg 95%
    08:00 +6°C° 1,4 mm 5 m/S 711 mmHg 95%
    09:00 +6°C° 1,4 mm 5 m/S 711 mmHg 95%
    10:00 +6°C° 1,4 mm 5 m/S 711 mmHg 95%
    11:00 +7°C° 1,9 mm 5 m/S 711 mmHg 94%
    12:00 +7°C° 1,9 mm 6 m/S 711 mmHg 93%
    13:00 +7°C° 1,9 mm 6 m/S 711 mmHg 92%
    14:00 +8°C° 0,5 mm 7 m/S 711 mmHg 91%
    15:00 +8°C° 0,5 mm 7 m/S 711 mmHg 89%
    16:00 +8°C° 0,5 mm 7 m/S 711 mmHg 87%
    17:00 +8°C° 1,1 mm 7 m/S 711 mmHg 88%
    18:00 +8°C° 1,1 mm 7 m/S 711 mmHg 88%
    19:00 +8°C° 1,1 mm 7 m/S 711 mmHg 89%
    20:00 +8°C° 0,7 mm 7 m/S 712 mmHg 88%
    21:00 +6°C° 0,7 mm 7 m/S 713 mmHg 88%
    22:00 +6°C° 0,7 mm 7 m/S 713 mmHg 88%
    23:00 +7°C° 0,1 mm 6 m/S 714 mmHg 89%

    23 Januar, Dienstag

    Zeit Temperatur Niederschläge Wind Luftdruck Luftfeuchtigkeit
    00:00 +6°C° 0,1 mm 5 m/S 715 mmHg 91%
    01:00 +5°C° 0,1 mm 4 m/S 716 mmHg 92%
    02:00 +5°C° 0,1 mm 3 m/S 716 mmHg 93%
    03:00 +5°C° 0,1 mm 3 m/S 716 mmHg 94%
    04:00 +5°C° 0,1 mm 2 m/S 717 mmHg 95%
    05:00 +5°C° 0,3 mm 3 m/S 717 mmHg 95%
    06:00 +5°C° 0,3 mm 3 m/S 718 mmHg 94%
    07:00 +6°C° 0,3 mm 4 m/S 718 mmHg 93%
    08:00 +6°C° 0,1 mm 4 m/S 719 mmHg 91%
    09:00 +6°C° 0,1 mm 5 m/S 719 mmHg 89%
    10:00 +6°C° 0,1 mm 5 m/S 720 mmHg 88%
    11:00 +7°C° 0 mm 5 m/S 720 mmHg 85%
    12:00 +7°C° 0 mm 5 m/S 720 mmHg 82%
    13:00 +7°C° 0 mm 6 m/S 720 mmHg 79%
    14:00 +7°C° 0 mm 5 m/S 721 mmHg 80%
    15:00 +7°C° 0 mm 4 m/S 721 mmHg 81%
    16:00 +6°C° 0 mm 4 m/S 721 mmHg 83%
    17:00 +7°C° 0 mm 3 m/S 721 mmHg 85%
    18:00 +5°C° 0 mm 3 m/S 722 mmHg 87%
    19:00 +5°C° 0 mm 2 m/S 722 mmHg 89%
    20:00 +5°C° 0 mm 2 m/S 722 mmHg 90%
    21:00 +4°C° 0 mm 2 m/S 722 mmHg 91%
    22:00 +4°C° 0 mm 2 m/S 722 mmHg 91%
    23:00 +4°C° 0 mm 2 m/S 722 mmHg 92%

    24 Januar, Mittwoch

    Zeit Temperatur Niederschläge Wind Luftdruck Luftfeuchtigkeit
    00:00 +4°C° 0 mm 2 m/S 722 mmHg 92%
    01:00 +4°C° 0 mm 1 m/S 722 mmHg 92%
    02:00 +4°C° 0 mm 1 m/S 722 mmHg 92%
    03:00 +4°C° 0 mm 1 m/S 722 mmHg 92%
    04:00 +4°C° 0 mm 1 m/S 721 mmHg 91%
    05:00 +4°C° 0 mm 1 m/S 721 mmHg 91%
    06:00 +4°C° 0 mm 1 m/S 721 mmHg 91%
    07:00 +4°C° 0 mm 1 m/S 721 mmHg 90%
    08:00 +5°C° 0 mm 1 m/S 721 mmHg 88%
    09:00 +5°C° 0 mm 1 m/S 721 mmHg 87%
    10:00 +6°C° 0 mm 1 m/S 721 mmHg 85%
    11:00 +7°C° 0 mm 1 m/S 721 mmHg 81%
    12:00 +9°C° 0 mm 1 m/S 721 mmHg 78%
    13:00 +10°C° 0 mm 1 m/S 721 mmHg 74%
    14:00 +10°C° 0 mm 1 m/S 720 mmHg 77%
    15:00 +9°C° 0 mm 1 m/S 720 mmHg 79%
    16:00 +9°C° 0 mm 1 m/S 720 mmHg 82%
    17:00 +8°C° 0 mm 1 m/S 720 mmHg 84%
    18:00 +7°C° 0 mm 1 m/S 719 mmHg 85%
    19:00 +6°C° 0 mm 1 m/S 719 mmHg 87%
    20:00 +5°C° 0 mm 1 m/S 719 mmHg 86%
    21:00 +4°C° 0 mm 2 m/S 719 mmHg 84%
    22:00 +4°C° 0 mm 2 m/S 718 mmHg 83%
    23:00 +4°C° 0 mm 2 m/S 718 mmHg 81%
    Mehr zeigen